Content
SEND FEEDBACK

Daily
Averages
Monthly
Summary
United States of America

PUT IN BAY, OHIO


Home > North America > United States > Ohio
Elevation: 171 meters     Latitude: 41 39N     Longitude: 082 48W

WEATHER
 
SELECT A DAY
Number of Records: 122,760;   Date Range: 12/10/00 - 8/19/14
 
SHARE

PRINT THIS DATA

[ ← Previous Day ]
WEATHER ALMANAC - 1 APRIL, 2013
[ Next Day → ]
[ °F ]   °C
Weather ElementAverageHighLow
Temperature1.6 °C6.6 °C (1:00 am)-1.6 °C (11:00 pm)
Dewpoint-9 °C-0.8 °C (1:00 am)-12.9 °C (5:00 pm)
Humidity45.1 %70 % (5:00 am)24 % (2:00 pm)
Barometer1013.5 hPa1019.6 hPa (11:00 pm)1005.1 hPa (1:00 am)
Wind Speed16.9 km/h22.2 km/h (1:00 pm)
Wind Gust37 km/h (1:00 pm)
Weather ElementAverage
Wind DirectionWNW (307 °)

Weather ElementTotal
Precipitation---
Heating Degree Days15.8 (Base 18.3)
Averaged from 27 records on 1 April, 2013
WEATHER CONDITIONS BREAKOUT
WIND DIRECTION BREAKOUT
WEATHER BY HOUR - 1 APRIL, 2013
[ °F ]   °C
Local TimeTemperatureDewpointHumidityBarometerVisibilityWind DirectionWind SpeedGust SpeedPrecipitationEventsConditions
1:00 AM6.6 °C-0.8 °C59 %1005.1 hPaWNW (290°)16.7 km/h
2:00 AM4.4 °C-3.3 °C44 %1006.1 hPaWNW (290°)18.5 km/h
2:00 AM4.4 °C-3.5 °C57 %1006.1 hPaWNW (290°)18.5 km/h31.5 km/h
3:00 AM3.4 °C-3 °C63 %1006.8 hPaWNW (290°)14.8 km/h
4:00 AM2.2 °C-3.3 °C67 %1007.8 hPaNNW (330°)13 km/h
5:00 AM1.1 °C-3.9 °C70 %1009.1 hPaNW (320°)13 km/h
6:00 AM0.5 °C-4.4 °C70 %1010.2 hPaNW (320°)13 km/h
7:00 AM-1 °C-10.2 °C50 %1011.9 hPaNW (320°)13 km/h
8:00 AM-1.1 °C-10.6 °C35 %1013.2 hPaNW (320°)20.4 km/h
8:00 AM-1.1 °C-10.5 °C49 %1013.2 hPaNW (320°)20.4 km/h31.5 km/h
9:00 AM-0.6 °C-9.5 °C52 %1014.2 hPaNW (310°)14.8 km/h
10:00 AM0.6 °C-9.5 °C47 %1014.6 hPaNW (320°)18.5 km/h29.6 km/h
11:00 AM0.5 °C-10.4 °C44 %1014.9 hPaNW (310°)16.7 km/h
12:00 PM1.8 °C-11.2 °C38 %1015.6 hPaNW (310°)18.5 km/h31.5 km/h
1:00 PM2.1 °C-12 °C35 %1015.9 hPaWNW (300°)22.2 km/h37 km/h
2:00 PM2.8 °C-10.6 °C24 %1015.9 hPaWNW (300°)20.4 km/h
2:00 PM3 °C-10.4 °C37 %1015.9 hPaWNW (300°)20.4 km/h33.3 km/h
3:00 PM3 °C-11.7 °C34 %1015.6 hPaWNW (300°)16.7 km/h31.5 km/h
4:00 PM3.1 °C-12.7 °C31 %1015.9 hPaWNW (300°)20.4 km/h33.3 km/h
5:00 PM3.9 °C-12.9 °C29 %1015.9 hPaWNW (290°)18.5 km/h33.3 km/h
6:00 PM2.8 °C-12.4 °C32 %1016.3 hPaWNW (300°)18.5 km/h33.3 km/h
7:00 PM2.2 °C-12.3 °C34 %1016.9 hPaNW (320°)14.8 km/h
8:00 PM0.6 °C-12.2 °C25 %1017.6 hPaWNW (300°)16.7 km/h
8:00 PM0.8 °C-12.1 °C38 %1017.6 hPaWNW (300°)16.7 km/h31.5 km/h
9:00 PM-0.4 °C-10.6 °C47 %1018.6 hPaNW (320°)14.8 km/h
10:00 PM-1 °C-9.8 °C52 %1019.3 hPaNW (310°)13 km/h
11:00 PM-1.6 °C-9.5 °C55 %1019.6 hPaNW (310°)11.1 km/h
Hourly data recorded from CXHA, located 0 kilometers away from Put In Bay, Ohio







STORIES FROM OUR PARTNERS